Regional Weather Roundup
Issued by NWS New Orleans/Baton Rouge, LA

Home | Current Version | Previous Version | Graphics & Text | Print | Product List | Glossary On
Versions: 1 2 3 4 5 6 7 8 9 10 11 12 13 14 15 16 17 18 19 20 21 22 23 24 25 26 27 28 29 30 31 32 33 34 35 36 37 38 39 40 41 42 43 44 45 46 47 48 49 50
352
ASUS44 KLIX 241205
RWRLIX
NEW ORLEANS REGIONAL WEATHER ROUNDUP
NATIONAL WEATHER SERVICE NEW ORLEANS LA
700 AM CDT FRI OCT 24 2014

NOTE: "FAIR" INDICATES FEW OR NO CLOUDS BELOW 12,000 FEET WITH NO
      SIGNIFICANT WEATHER AND/OR OBSTRUCTIONS TO VISIBILITY.
      SKY/WX - SKY CONDITION AND SIGNIFICANT WEATHER.
      TMP - AIR TEMPERATURE.     DP    - DEWPOINT TEMPERATURE.
      RH  - RELATIVE HUMIDITY.   PRES  - PRESSURE.
      HI  - HEAT INDEX.          WCI   - WIND CHILL INDEX.

*  THESE STATIONS ARE NOT NWS OR FAA STATIONS AND ARE NOT UNDER
   NWS QUALITY CONTROL.

LAZ038-040-048-061>063-065>067-069-241300-
SOUTHEAST LOUISIANA

CITY           SKY/WX    TMP DP  RH WIND       PRES   REMARKS
N.O. AUDUBON   NOT AVBL
N.O. INTL ARPT PTCLDY    60  51  72 NE7       30.09S
6HR MIN TEMP:  59; 6HR MAX TEMP:  64;

N.O. LAKEFRONT CLEAR     63  51  65 NE14      30.09S
6HR MIN TEMP:  62; 6HR MAX TEMP:  67;

N.O. DOWNTOWN*   N/A     59  46  63 NE3       30.09S
6HR MIN TEMP:  59; 6HR MAX TEMP:  64;

SLIDELL        CLEAR     48  46  93 CALM      30.09S
6HR MIN TEMP:  48; 6HR MAX TEMP:  53;

BATON ROUGE    CLEAR     47  45  93 CALM      30.12R
6HR MIN TEMP:  47; 6HR MAX TEMP:  53;

BOOTHVILLE     CLEAR     67  57  70 N6        30.07R
6HR MIN TEMP:  66; 6HR MAX TEMP:  69;

BELLE CHASSE   PTCLDY    51  48  89 N3        30.09R
6HR MIN TEMP:  51; 6HR MAX TEMP:  56;

BOGALUSA*        N/A     46  43  90 CALM      30.12R
6HR MIN TEMP:  45; 6HR MAX TEMP:  53;

NEW ROADS*       N/A     48  47  97 CALM      30.13R
6HR MIN TEMP:  47; 6HR MAX TEMP:  53;

GONZALES*        N/A     49  49 100 CALM      30.11R
6HR MIN TEMP:  49; 6HR MAX TEMP:  55;

HAMMOND*       CLEAR     48  45  87 CALM      30.12R
HOUMA*         NOT AVBL
PORT FOURCHON* SUNNY     63  55  77 N9        30.11R

$$

MSZ070-080>082-241300-
SOUTHERN MISSISSIPPI

CITY           SKY/WX    TMP DP  RH WIND       PRES   REMARKS
MCCOMB         CLEAR     49  46  90 NW3       30.11S
6HR MIN TEMP:  47; 6HR MAX TEMP:  54;

GULFPORT       CLEAR     51  47  86 CALM      30.08S
6HR MIN TEMP:  50; 6HR MAX TEMP:  59;

BILOXI         CLEAR     53  47  81 NE3       30.08S
6HR MIN TEMP:  53; 6HR MAX TEMP:  60;

PASCAGOULA     CLEAR     49  47  93 CALM      30.09R
6HR MIN TEMP:  46; 6HR MAX TEMP:  51;

STENNIS ARPT*  CLEAR     46  43  87 CALM      30.09

$$

COASTAL OBSERVATIONS
LAKE AND NEARSHORE STATIONS

STATION/POSITION TIME  TEMP    WIND        PRES    WAVE
                       AIR SEA DIR/SP/G            HT/PER
                 (UTC) (F)     (DEG/KT/KT) (MB)    (FT/S)
PASCAGOULA       1200   55      10/  7/  8 1017.9
WAVELAND YACHT   1200   56      20/  8/  9 1018.0
GRAND ISLE       1200   65 73   20/ 12/ 16 1019.0
SOUTHWEST PASS   1200   70 81              1018.1
NEW CANAL        1200   63 69   70/ 11/ 12 1019.1
SHELL BEACH      1200   63 66   40/ 13/ 15 1018.5

OFFSHORE STATIONS

STATION/POSITION TIME  TEMP    WIND        PRES    WAVE
                       AIR SEA DIR/SP/G            HT/PER
                 (UTC) (F)     (DEG/KT/KT) (MB)    (FT/S)
64 S DAUPHIN ISL 1145   71 78   10/ 10/ 14 1017.9    3/ 6

$$




USA.gov is the U.S. government's official web portal to all federal, state and local government web resources and services.